Simultaneous Nadir Overpasses (SNOs) Predictions

Prediction of SNOs between NOAA-15 and METOP-C Satellite Orbit:

Table of predicted SNOs for the next 14.0 days since TLE Epoch: 5/29/2021
Index Date (NOAA-15) Time (NOAA-15) Lat,Lon (NOAA-15) SZA (NOAA-15 ) Date (METOP-C) Time (METOP-C) Lat,Lon (METOP-C) SZA (METOP-C ) Distance(km) Time Diff (sec)
1 06/04/2021 02:05:51 -81.02, 5.48 119.50 06/04/2021 02:04:41 -81.01, 5.57 119.53 2.23 70
2 06/04/2021 02:56:19 81.02, 172.87 60.50 06/04/2021 02:55:21 81.01, 172.88 60.47 1.65 58
3 06/04/2021 03:46:53 -81.02, -19.70 119.50 06/04/2021 03:46:02 -81.02, -19.56 119.51 2.34 51
4 06/04/2021 04:37:21 81.02, 147.69 60.50 06/04/2021 04:36:42 81.02, 147.75 60.49 0.95 39
5 06/04/2021 05:27:55 -81.01, -44.87 119.50 06/04/2021 05:27:24 -81.01, -45.06 119.54 3.31 31
6 06/04/2021 06:18:23 81.01, 122.52 60.50 06/04/2021 06:18:03 81.02, 122.61 60.51 2.03 20
7 06/04/2021 07:08:57 -81.01, -70.05 119.51 06/04/2021 07:08:45 -81.02, -70.19 119.52 2.68 12
8 06/04/2021 07:59:26 81.03, 96.98 60.47 06/04/2021 07:59:25 81.02, 97.11 60.48 2.50 1
9 06/04/2021 08:50:00 -81.02, -95.59 119.53 06/04/2021 08:50:07 -81.01, -95.69 119.55 2.13 7
10 06/04/2021 09:40:28 81.02, 71.81 60.47 06/04/2021 09:40:46 81.03, 71.98 60.50 3.06 18
11 06/04/2021 10:31:02 -81.02,-120.77 119.54 06/04/2021 10:31:28 -81.02,-120.82 119.53 1.00 26
12 06/04/2021 11:21:30 81.02, 46.63 60.47 06/04/2021 11:22:08 81.02, 46.48 60.47 2.68 38
13 06/04/2021 12:12:04 -81.02,-145.94 119.54 06/04/2021 12:12:49 -81.03,-145.96 119.51 1.59 45
14 06/04/2021 13:02:32 81.01, 21.46 60.46 06/04/2021 13:03:29 81.03, 21.35 60.49 2.51 57
15 06/04/2021 13:53:07 -81.03,-171.49 119.57 06/04/2021 13:54:11 -81.02,-171.45 119.54 0.78 64



Historial Predications of SNOs between NOAA-15 and METOP-C
